Change the Weather History Date:

Thursday, September 13, 2012

  Actual Average Record
Temperature  
Mean Temperature 78 °F -  
Max Temperature 87 °F 88 °F 97 °F (1954)
Min Temperature 69 °F 67 °F 54 °F (1968)
Cooling Degree Days 14    
Growing Degree Days 28 (Base 50)    
Moisture  
Dew Point 69 °F    
Average Humidity 79    
Maximum Humidity 97    
Minimum Humidity 55    
Precipitation  
Precipitation 0.12 in - - ()
Sea Level Pressure  
Sea Level Pressure 30.12 in    
Wind  
Wind Speed 3 mph (ESE)    
Max Wind Speed 14 mph    
Max Gust Speed 23 mph    
Visibility 8 miles    
Events Rain    
Averages and records for this station are not official NWS values.
T = Trace of Precipitation, MM = Missing Value Source: NWS Daily Summary

Daily Weather History Graph

Daily Weather History Graph

Search for Another Location

Airport or City:

Trip Planner

Search our weather history database for the weather conditions in past years. The results will help you decide how hot, cold, wet, or windy it might be!

Date:

Astronomy

Sep. 13, 2012 Rise Set
Actual Time 6:45 AM CDT 7:09 PM CDT
Civil Twilight 6:20 AM CDT 7:33 PM CDT
Nautical Twilight 5:52 AM CDT 8:02 PM CDT
Astronomical Twilight 5:23 AM CDT 8:30 PM CDT
Moon 4:12 AM CDT (9/13) 5:27 PM CDT (9/13)
Length of Visible Light 13h 12m
Length of Day
12h 24m
Waning Crescent, 7% of the Moon is Illuminated
Sep 13
Waning Crescent
Sep 15
New
Sep 22
First Quarter
Sep 29
Full
Oct 8
Last Quarter

Hourly Weather History & Observations

Time (CDT) Temp. Heat Index Dew Point Humidity Pressure Visibility Wind Dir Wind Speed Gust Speed Precip Events Conditions
12:53 AM 73.0 °F - 71.1 °F 93% 30.14 in 8.0 mi Calm Calm - N/A   Overcast
1:53 AM 73.0 °F - 71.1 °F 93% 30.13 in 9.0 mi Calm Calm - N/A   Overcast
2:53 AM 72.0 °F - 70.0 °F 93% 30.12 in 10.0 mi Calm Calm - N/A   Overcast
3:53 AM 72.0 °F - 70.0 °F 93% 30.11 in 10.0 mi Calm Calm - N/A   Clear
4:53 AM 71.1 °F - 69.1 °F 93% 30.11 in 10.0 mi Calm Calm - N/A   Clear
5:53 AM 70.0 °F - 69.1 °F 97% 30.13 in 10.0 mi Calm Calm - N/A   Clear
6:53 AM 70.0 °F - 68.0 °F 93% 30.14 in 8.0 mi Calm Calm - N/A   Clear
7:53 AM 72.0 °F - 66.9 °F 84% 30.15 in 10.0 mi Calm Calm - N/A   Partly Cloudy
8:53 AM 75.0 °F - 68.0 °F 79% 30.16 in 10.0 mi East 5.8 mph - N/A   Clear
9:53 AM 78.1 °F - 70.0 °F 76% 30.17 in 10.0 mi Variable 4.6 mph - N/A   Clear
10:53 AM 81.0 °F 84.9 °F 71.1 °F 72% 30.16 in 10.0 mi SSE 9.2 mph - N/A   Scattered Clouds
11:53 AM 82.9 °F 87.0 °F 70.0 °F 65% 30.16 in 10.0 mi Variable 5.8 mph - N/A   Scattered Clouds
12:53 PM 84.0 °F 87.8 °F 69.1 °F 61% 30.14 in 10.0 mi SSE 8.1 mph - N/A   Clear
1:53 PM 84.9 °F 88.2 °F 68.0 °F 57% 30.12 in 10.0 mi ENE 6.9 mph - N/A   Mostly Cloudy
2:53 PM 84.0 °F 87.0 °F 68.0 °F 58% 30.09 in 2.5 mi SE 6.9 mph - N/A   Haze
3:14 PM 86.0 °F 90.4 °F 69.8 °F 58% 30.10 in 1.0 mi Variable 5.8 mph - N/A   Haze
3:25 PM 87.8 °F 92.6 °F 69.8 °F 55% 30.10 in 3.0 mi Variable 6.9 mph - N/A   Haze
3:34 PM 86.0 °F 89.4 °F 68.0 °F 55% 30.10 in 2.0 mi ENE 6.9 mph 17.3 mph N/A   Haze
3:53 PM 84.9 °F 87.6 °F 66.9 °F 55% 30.08 in 10.0 mi ENE 9.2 mph - N/A   Partly Cloudy
4:53 PM 84.9 °F 88.2 °F 68.0 °F 57% 30.07 in 10.0 mi Variable 5.8 mph - N/A   Clear
5:53 PM 78.1 °F - 68.0 °F 71% 30.10 in 10.0 mi SSE 13.8 mph 23.0 mph N/A   Overcast
6:02 PM 73.4 °F - 69.8 °F 88% 30.12 in 1.8 mi SSE 8.1 mph 19.6 mph 0.09 in Rain Heavy Rain
6:11 PM 73.4 °F - 69.8 °F 88% 30.12 in 3.0 mi Calm Calm - 0.11 in Rain Rain
6:53 PM 73.0 °F - 71.1 °F 93% 30.10 in 10.0 mi Calm Calm - 0.11 in   Partly Cloudy
7:53 PM 72.0 °F - 70.0 °F 93% 30.11 in 6.0 mi Calm Calm - N/A   Clear
8:53 PM 71.1 °F - 70.0 °F 96% 30.13 in 5.0 mi Calm Calm - N/A   Clear
9:53 PM 71.1 °F - 69.1 °F 93% 30.15 in 9.0 mi Calm Calm - 0.01 in   Clear
10:53 PM 70.0 °F - 69.1 °F 97% 30.15 in 10.0 mi Calm Calm - N/A   Clear
11:53 PM 69.1 °F - 68.0 °F 96% 30.16 in 8.0 mi Calm Calm - N/A   Clear